sat.trackr.live / text

‹ back to catalog

STARLINK-4258

NORAD 53180 · 2022-083BA

PAYLOAD ACTIVE UNKNOWN

§ Identity

Operator
Country
US
Launch date
2022-07-17
Launch site
AFETR
Launch vehicle
Mass (kg)
RCS (m²)

Purposes: comms

External: N2YO · Heavens-Above · Gunter

§ Orbital elements

Epoch: 2026-05-25T03:25:00.837120Z

Period
95.44 min
Inclination
53.2136°
Eccentricity
0.0001064
Mean motion
15.08845232 rev/d
Perigee alt
539.0 km
Apogee alt
540.5 km
Semi-major
6,917.9 km
B*
-4.8180e-5
RAAN
140.7792°
Arg perigee
71.1163°
Mean anomaly
288.9945°
Rev number
21,345

§ Raw data

STARLINK-42581 53180U 22083BA  26145.14237080 -.00001055  00000+0 -48180-4 0  99922 53180  53.2136 140.7792 0001064  71.1163 288.9945 15.08845232213457

JSON: /api/v1/satellites/53180 · /tle

For live sub-satellite position, see the globe view (requires WebGL).

§ Visibility from observer

Set your observer location to see the next 7 days of passes ≥ 10°. The values pass through the URL so the page stays shareable.

No JS? Fill the form by hand. The geolocation button needs JavaScript.